Regional Weather Roundup
Issued by NWS

Home | Current Version | Previous Version | Text Only | Print | Product List | Glossary On
Versions: 1 2 3 4 5 6 7 8 9 10 11 12 13 14 15 16 17 18 19 20 21 22 23 24 25 26 27 28 29 30 31 32 33 34 35 36 37 38 39 40 41 42 43 44 45 46 47 48 49 50
000
ASUS43 KTOP 262259
RWRKS

WEATHER ROUNDUP FOR KANSAS
NATIONAL WEATHER SERVICE GOODLAND KS
600 PM CDT THU MAY 26 2016

NOTE:  "FAIR" INDICATES FEW OR NO CLOUDS BELOW 12,000 FEET WITH NO
SIGNIFICANT WEATHER AND/OR OBSTRUCTIONS TO VISIBILITY.

KSZ001>006-013>018-027>032-041>047-270000-
NORTHWEST KANSAS

CITY           SKY/WX    TMP DP  RH WIND       PRES   REMARKS
HAYS           PTSUNNY   64  55  72 S12       29.62F
HILL CITY      CLOUDY    76  56  49 S9        29.65F
RUSSELL        CLOUDY    73  57  57 SE10      29.61F
$$

KSZ061>065-074>080-084>089-270000-
SOUTHWEST KANSAS

CITY           SKY/WX    TMP DP  RH WIND       PRES   REMARKS
DODGE CITY     TSTM      67  65  93 E25       29.58F FOG
ELKHART          N/A     86  29  12 MISG        N/A
GARDEN CITY    SUNNY     87  40  19 SW16G23   29.59F
GREAT BEND     CLOUDY    72  59  64 E20       29.64F
LIBERAL        SUNNY     90  37  15 SW20      29.62F
$$

KSZ066>073-081>083-090>101-270000-
SOUTHEAST KANSAS

CITY           SKY/WX    TMP DP  RH WIND       PRES   REMARKS
CHANUTE        CLOUDY    81  72  74 S17G24    29.75F
COFFEYVILLE    MOSUNNY   82  72  71 S15G24    29.77S
HUTCHINSON     TSTM      71  67  87 SW15G35   29.75R VSB 1/2
MEDICINE LODGE   N/A     87  63  44 S24G32    29.60F
NEWTON         CLOUDY    66  57  72 NW6       29.74R THUNDER
PARSONS        MOSUNNY   82  72  71 S17G26    29.78S
WICHITA INTL   PTSUNNY   84  71  65 S18G26    29.66F
WICHITA JABRA  CLOUDY    81  71  71 S17G26    29.67F
WINFIELD       CLOUDY    83  70  64 S20G28    29.70F
$$

KSZ007>012-019>026-033>040-048>060-102>105-270000-
NORTHEAST KANSAS

CITY           SKY/WX    TMP DP  RH WIND       PRES   REMARKS
CONCORDIA      RAIN      63  59  87 VRB3      29.79R FOG
EMPORIA        CLOUDY    67  63  87 N7G18     29.75R
LAWRENCE       LGT RAIN  63  60  90 NE15G21   29.79S
MANHATTAN      CLOUDY    66  62  87 NE7       29.75R
OLATHE IND     LGT RAIN  63  60  90 N29G39    29.82F
OLATHE EXE     TSTM      62  60  93 N25G39    29.82R FOG
SALINA         TSTM      65  63  93 NE14      29.70F
TOPEKA BILLARD CLOUDY    64  60  87 E10       29.77F
TOPEKA FORBES  CLOUDY    65  61  87 NE7       29.78F
$$




USA.gov is the U.S. government's official web portal to all federal, state and local government web resources and services.